Torna al catalogo

TITAN 3C TRANSTAGE DEB

AttivoMEO
NORAD 39298·DEBRIS·🇺🇸 United States

Lanciato Sep 26, 1968 da Cape Canaveral Space Force Station

Loading…

Prossimi Passaggi (prossime 24 ore)

TLE

AggiornatoSource: Space-Track

Epoca: Sep 13, 2026, 19:47 UTC

1 39298U 68081AJ  26256.82458162 -.00000136  00000-0  00000-0 0  9992
2 39298   1.7752  31.0055 0148617 317.3109 108.9018  1.00183890 67178

Traccia TITAN 3C TRANSTAGE DEB in tempo reale con AllMySat

Download on the App Store